RYR19 EPKK-LIPY

Flight info

Callsign RYR19
Flight time 1h 28m
Altitude 38000
Route BABKO DCT NIDOK DCT KOPRY DCT ELGUS M730 KEGED
Aircraft B738/M-SDE2E3FGHIRWXY/LB1

Departure

Time 2026-05-05 08:58
Airport Kraków John Paul II International Airport (EPKK)

Arrival

Time 2026-05-05 10:26
Airport Marche Airport (LIPY)
Time Latitude Longitude Altitude Speed Heading
2026-05-05 08:19 50.07340 19.80053 801 ft 0 kts 166°
2026-05-05 08:47 50.07350 19.80049 801 ft 2 kts 166°
2026-05-05 08:47 50.07365 19.80043 801 ft 2 kts 166°
2026-05-05 08:47 50.07379 19.80037 801 ft 1 kts 166°
2026-05-05 08:47 50.07389 19.80034 801 ft 1 kts 152°
2026-05-05 08:48 50.07398 19.80016 801 ft 2 kts 104°
2026-05-05 08:48 50.07399 19.80003 801 ft 1 kts 78°
2026-05-05 08:48 50.07397 19.79993 801 ft 0 kts 79°
2026-05-05 08:51 50.07398 19.80001 801 ft 4 kts 79°
2026-05-05 08:51 50.07409 19.80090 801 ft 10 kts 79°
2026-05-05 08:52 50.07426 19.80217 801 ft 13 kts 78°
2026-05-05 08:52 50.07460 19.80364 801 ft 15 kts 34°
2026-05-05 08:52 50.07573 19.80417 801 ft 18 kts 10°
2026-05-05 08:52 50.07689 19.80385 801 ft 2 kts 347°
2026-05-05 08:53 50.07696 19.80382 801 ft 3 kts 347°
2026-05-05 08:53 50.07729 19.80370 801 ft 6 kts 347°
2026-05-05 08:54 50.07756 19.80361 801 ft 3 kts 347°
2026-05-05 08:54 50.07789 19.80349 801 ft 6 kts 347°
2026-05-05 08:54 50.07838 19.80339 801 ft 0 kts 350°
2026-05-05 08:55 50.07854 19.80334 802 ft 4 kts 350°
2026-05-05 08:55 50.07895 19.80322 802 ft 7 kts 348°
2026-05-05 08:55 50.07956 19.80300 801 ft 10 kts 346°
2026-05-05 08:56 50.08012 19.80234 802 ft 9 kts 274°
2026-05-05 08:56 50.08007 19.80176 802 ft 0 kts 258°
2026-05-05 08:57 50.07999 19.80115 802 ft 18 kts 258°
2026-05-05 08:57 50.07914 19.79500 802 ft 99 kts 257°
2026-05-05 08:57 50.07712 19.78051 804 ft 171 kts 258°
2026-05-05 08:58 50.07458 19.76122 1504 ft 183 kts 258°
2026-05-05 08:58 50.07220 19.74229 2513 ft 182 kts 257°
2026-05-05 08:58 50.06976 19.72325 3338 ft 190 kts 256°
2026-05-05 08:58 50.06659 19.70354 3991 ft 206 kts 252°
2026-05-05 08:59 50.06237 19.68134 4617 ft 227 kts 246°
2026-05-05 08:59 50.05292 19.66176 5432 ft 237 kts 213°
2026-05-05 08:59 50.03727 19.65204 6266 ft 250 kts 191°
2026-05-05 08:59 50.02018 19.64888 7200 ft 260 kts 182°
2026-05-05 09:00 50.00179 19.65246 7500 ft 272 kts 168°
2026-05-05 09:00 49.98370 19.66078 8329 ft 272 kts 165°
2026-05-05 09:00 49.96525 19.66944 8973 ft 281 kts 168°
2026-05-05 09:00 49.94676 19.67640 9872 ft 278 kts 171°
2026-05-05 09:01 49.92747 19.68273 10491 ft 289 kts 172°
2026-05-05 09:01 49.90734 19.68895 11126 ft 298 kts 172°
2026-05-05 09:01 49.88683 19.69282 11971 ft 297 kts 182°
2026-05-05 09:01 49.86678 19.68817 12809 ft 296 kts 201°
2026-05-05 09:02 49.84865 19.67436 13616 ft 298 kts 210°
2026-05-05 09:02 49.83174 19.65921 14338 ft 303 kts 211°
2026-05-05 09:02 49.81345 19.64284 15094 ft 309 kts 211°
2026-05-05 09:02 49.79473 19.62640 15875 ft 313 kts 210°
2026-05-05 09:03 49.77569 19.60969 16564 ft 311 kts 212°
2026-05-05 09:03 49.75704 19.59290 16699 ft 320 kts 211°
2026-05-05 09:03 49.73748 19.57621 17105 ft 321 kts 210°
2026-05-05 09:03 49.71760 19.55958 17761 ft 328 kts 210°
2026-05-05 09:04 49.69753 19.54271 18593 ft 328 kts 210°
2026-05-05 09:04 49.67739 19.52563 19241 ft 334 kts 210°
2026-05-05 09:04 49.65691 19.50816 19882 ft 339 kts 210°
2026-05-05 09:04 49.63642 19.49065 20551 ft 343 kts 210°
2026-05-05 09:05 49.61527 19.47259 21189 ft 347 kts 210°
2026-05-05 09:05 49.59415 19.45430 21772 ft 352 kts 211°
2026-05-05 09:05 49.57275 19.43530 22373 ft 357 kts 211°
2026-05-05 09:05 49.55133 19.41609 22962 ft 360 kts 212°
2026-05-05 09:06 49.52932 19.39635 23517 ft 365 kts 212°
2026-05-05 09:06 49.50838 19.37760 24102 ft 368 kts 211°
2026-05-05 09:06 49.48734 19.35883 24642 ft 371 kts 211°
2026-05-05 09:06 49.46631 19.34010 25143 ft 375 kts 211°
2026-05-05 09:07 49.44351 19.31983 25694 ft 378 kts 210°
2026-05-05 09:07 49.42126 19.30010 26212 ft 381 kts 211°
2026-05-05 09:07 49.39834 19.27980 26724 ft 384 kts 211°
2026-05-05 09:07 49.37527 19.25940 27275 ft 386 kts 211°
2026-05-05 09:08 49.35177 19.23864 27769 ft 389 kts 211°
2026-05-05 09:08 49.32926 19.21879 28266 ft 391 kts 211°
2026-05-05 09:08 49.30537 19.19774 28740 ft 394 kts 211°
2026-05-05 09:08 49.28153 19.17674 29201 ft 397 kts 211°
2026-05-05 09:09 49.25735 19.15548 29661 ft 399 kts 211°
2026-05-05 09:09 49.23311 19.13419 30063 ft 403 kts 211°
2026-05-05 09:09 49.20889 19.11292 30531 ft 405 kts 211°
2026-05-05 09:09 49.18430 19.09138 30978 ft 407 kts 211°
2026-05-05 09:10 49.15979 19.06992 31406 ft 409 kts 211°
2026-05-05 09:10 49.13664 19.04968 31798 ft 411 kts 211°
2026-05-05 09:10 49.11150 19.02773 32230 ft 413 kts 211°
2026-05-05 09:10 49.08675 19.00614 32627 ft 415 kts 211°
2026-05-05 09:11 49.06150 18.98413 33054 ft 417 kts 210°
2026-05-05 09:11 49.03630 18.96219 33476 ft 418 kts 211°
2026-05-05 09:11 49.01110 18.94029 33803 ft 421 kts 211°
2026-05-05 09:11 48.98560 18.91814 34200 ft 422 kts 211°
2026-05-05 09:12 48.96025 18.89615 34505 ft 425 kts 211°
2026-05-05 09:12 48.93523 18.87448 34834 ft 427 kts 211°
2026-05-05 09:12 48.90929 18.85203 35117 ft 430 kts 211°
2026-05-05 09:12 48.88363 18.82985 35391 ft 432 kts 211°
2026-05-05 09:13 48.85701 18.80735 35768 ft 431 kts 209°
2026-05-05 09:13 48.83064 18.78673 36128 ft 431 kts 208°
2026-05-05 09:13 48.80351 18.76659 36473 ft 431 kts 207°
2026-05-05 09:13 48.77675 18.74714 36827 ft 430 kts 207°
2026-05-05 09:14 48.74968 18.72755 37238 ft 430 kts 207°
2026-05-05 09:14 48.72311 18.70828 37640 ft 429 kts 207°
2026-05-05 09:14 48.69595 18.68848 37937 ft 431 kts 207°
2026-05-05 09:15 48.64188 18.64883 37942 ft 431 kts 208°
2026-05-05 09:15 48.58823 18.60936 37936 ft 429 kts 208°
2026-05-05 09:16 48.53463 18.56991 37939 ft 431 kts 208°
2026-05-05 09:16 48.48169 18.53100 37944 ft 431 kts 208°
2026-05-05 09:17 48.42774 18.49145 37936 ft 430 kts 208°
2026-05-05 09:17 48.37382 18.45204 37937 ft 432 kts 208°
2026-05-05 09:18 48.31998 18.41277 37930 ft 431 kts 208°
2026-05-05 09:18 48.26588 18.37341 37928 ft 431 kts 208°
2026-05-05 09:19 48.21349 18.33537 37922 ft 432 kts 207°
2026-05-05 09:19 48.15919 18.29604 37927 ft 433 kts 207°
2026-05-05 09:20 48.10521 18.25703 37920 ft 432 kts 207°
2026-05-05 09:20 48.05084 18.21784 37924 ft 433 kts 207°
2026-05-05 09:21 47.99783 18.17971 37916 ft 433 kts 207°
2026-05-05 09:21 47.94570 18.14232 37922 ft 433 kts 207°
2026-05-05 09:22 47.89137 18.10343 37920 ft 433 kts 207°
2026-05-05 09:22 47.83865 18.06577 37925 ft 433 kts 207°
2026-05-05 09:23 47.78428 18.02701 37923 ft 434 kts 207°
2026-05-05 09:23 47.72984 17.98830 37923 ft 434 kts 207°
2026-05-05 09:24 47.67585 17.95000 37923 ft 433 kts 207°
2026-05-05 09:24 47.62141 17.91146 37929 ft 433 kts 207°
2026-05-05 09:25 47.56707 17.87308 37934 ft 432 kts 207°
2026-05-05 09:25 47.51557 17.83680 37932 ft 432 kts 207°
2026-05-05 09:26 47.46136 17.79867 37933 ft 432 kts 207°
2026-05-05 09:26 47.40721 17.76067 37931 ft 432 kts 207°
2026-05-05 09:27 47.35528 17.72431 37946 ft 433 kts 207°
2026-05-05 09:27 47.30123 17.68658 37948 ft 433 kts 207°
2026-05-05 09:28 47.24750 17.64917 37949 ft 432 kts 207°
2026-05-05 09:28 47.19526 17.61289 37939 ft 431 kts 207°
2026-05-05 09:29 47.14275 17.57650 37936 ft 431 kts 207°
2026-05-05 09:29 47.08872 17.53913 37940 ft 432 kts 207°
2026-05-05 09:30 47.03463 17.50180 37939 ft 431 kts 207°
2026-05-05 09:30 46.98033 17.46440 37937 ft 432 kts 207°
2026-05-05 09:31 46.92590 17.42699 37940 ft 432 kts 207°
2026-05-05 09:31 46.87177 17.38987 37924 ft 430 kts 207°
2026-05-05 09:32 46.81783 17.35297 37924 ft 431 kts 207°
2026-05-05 09:32 46.76360 17.31593 37931 ft 431 kts 207°
2026-05-05 09:33 46.70918 17.27887 37937 ft 430 kts 207°
2026-05-05 09:33 46.65509 17.24211 37939 ft 430 kts 207°
2026-05-05 09:34 46.60107 17.20548 37941 ft 430 kts 207°
2026-05-05 09:34 46.54689 17.16882 37942 ft 429 kts 207°
2026-05-05 09:35 46.49302 17.13246 37950 ft 430 kts 207°
2026-05-05 09:35 46.41180 17.07777 37955 ft 430 kts 207°
2026-05-05 09:36 46.35731 17.04119 37954 ft 431 kts 207°
2026-05-05 09:36 46.30319 17.00495 37958 ft 429 kts 207°
2026-05-05 09:37 46.24937 16.96874 37957 ft 420 kts 207°
2026-05-05 09:37 46.19804 16.93154 37959 ft 407 kts 211°
2026-05-05 09:38 46.14946 16.89273 37963 ft 395 kts 212°
2026-05-05 09:38 46.10213 16.85487 37967 ft 384 kts 211°
2026-05-05 09:39 46.05604 16.81858 37975 ft 372 kts 211°
2026-05-05 09:39 46.01138 16.78378 37982 ft 360 kts 211°
2026-05-05 09:40 45.96788 16.75014 37981 ft 349 kts 211°
2026-05-05 09:40 45.92581 16.71758 37977 ft 336 kts 211°
2026-05-05 09:41 45.88635 16.68709 37983 ft 327 kts 211°
2026-05-05 09:41 45.84553 16.65619 37978 ft 337 kts 211°
2026-05-05 09:42 45.80862 16.62795 37972 ft 345 kts 212°
2026-05-05 09:42 45.77206 16.59989 37971 ft 353 kts 211°
2026-05-05 09:43 45.72806 16.56613 37972 ft 363 kts 211°
2026-05-05 09:43 45.68310 16.53174 37981 ft 373 kts 211°
2026-05-05 09:44 45.63692 16.49648 37981 ft 383 kts 211°
2026-05-05 09:44 45.58921 16.46011 37984 ft 393 kts 211°
2026-05-05 09:45 45.54043 16.42301 37986 ft 403 kts 211°
2026-05-05 09:45 45.49021 16.38487 37982 ft 413 kts 211°
2026-05-05 09:46 45.43879 16.34592 37982 ft 424 kts 210°
2026-05-05 09:46 45.38620 16.30619 37981 ft 427 kts 210°
2026-05-05 09:47 45.33422 16.26703 37990 ft 425 kts 210°
2026-05-05 09:47 45.28202 16.22776 37997 ft 425 kts 210°
2026-05-05 09:48 45.22975 16.18851 38002 ft 425 kts 210°
2026-05-05 09:48 45.17764 16.14942 38000 ft 425 kts 210°
2026-05-05 09:49 45.12519 16.11016 38003 ft 426 kts 210°
2026-05-05 09:49 45.07301 16.07117 38008 ft 425 kts 210°
2026-05-05 09:50 45.02080 16.03224 38009 ft 426 kts 210°
2026-05-05 09:50 44.96817 15.99308 38012 ft 426 kts 210°
2026-05-05 09:51 44.91606 15.95440 38016 ft 424 kts 210°
2026-05-05 09:51 44.86385 15.91577 38021 ft 424 kts 210°
2026-05-05 09:52 44.81163 15.87720 38018 ft 425 kts 210°
2026-05-05 09:52 44.75920 15.83857 38034 ft 425 kts 210°
2026-05-05 09:53 44.70692 15.80009 38036 ft 425 kts 210°
2026-05-05 09:53 44.65447 15.76156 38035 ft 426 kts 210°
2026-05-05 09:54 44.60205 15.72314 38044 ft 425 kts 210°
2026-05-05 09:54 44.54966 15.68478 38038 ft 425 kts 211°
2026-05-05 09:55 44.49742 15.64663 38045 ft 424 kts 211°
2026-05-05 09:55 44.44521 15.60861 38044 ft 423 kts 211°
2026-05-05 09:56 44.39294 15.57063 38048 ft 424 kts 211°
2026-05-05 09:56 44.34056 15.53263 38052 ft 423 kts 211°
2026-05-05 09:57 44.28838 15.49482 38047 ft 425 kts 211°
2026-05-05 09:57 44.23615 15.45706 38048 ft 423 kts 211°
2026-05-05 09:58 44.18366 15.41921 38053 ft 423 kts 211°
2026-05-05 09:58 44.13150 15.38169 38054 ft 423 kts 211°
2026-05-05 09:59 44.07945 15.34434 38050 ft 423 kts 210°
2026-05-05 09:59 44.02693 15.30672 37912 ft 418 kts 210°
2026-05-05 10:00 44.00144 15.28851 37639 ft 409 kts 210°
2026-05-05 10:00 43.97627 15.27053 37213 ft 409 kts 210°
2026-05-05 10:00 43.95110 15.25256 36686 ft 409 kts 210°
2026-05-05 10:00 43.92583 15.23453 36295 ft 409 kts 210°
2026-05-05 10:01 43.90035 15.21636 35824 ft 409 kts 211°
2026-05-05 10:01 43.87529 15.19851 35213 ft 411 kts 210°
2026-05-05 10:01 43.84989 15.18042 34552 ft 413 kts 211°
2026-05-05 10:01 43.82410 15.16203 33794 ft 415 kts 210°
2026-05-05 10:02 43.79869 15.14394 33081 ft 416 kts 210°
2026-05-05 10:02 43.77289 15.12562 32569 ft 411 kts 210°
2026-05-05 10:02 43.74770 15.10779 32056 ft 407 kts 209°
2026-05-05 10:02 43.72251 15.08997 31524 ft 403 kts 209°
2026-05-05 10:03 43.69802 15.07263 31000 ft 400 kts 209°
2026-05-05 10:03 43.67340 15.05522 30460 ft 396 kts 209°
2026-05-05 10:03 43.64894 15.03771 29929 ft 392 kts 210°
2026-05-05 10:03 43.62604 15.01818 29401 ft 387 kts 217°
2026-05-05 10:04 43.60574 14.99402 28886 ft 381 kts 227°
2026-05-05 10:04 43.58897 14.96592 28379 ft 379 kts 235°
2026-05-05 10:04 43.57515 14.93548 27861 ft 382 kts 241°
2026-05-05 10:04 43.56356 14.90215 27324 ft 382 kts 248°
2026-05-05 10:05 43.55630 14.86742 26807 ft 379 kts 258°
2026-05-05 10:05 43.55312 14.83139 26281 ft 377 kts 265°
2026-05-05 10:05 43.55259 14.79546 25762 ft 374 kts 269°
2026-05-05 10:05 43.55330 14.76019 25245 ft 371 kts 270°
2026-05-05 10:06 43.55454 14.72446 24721 ft 369 kts 271°
2026-05-05 10:06 43.55586 14.68978 24214 ft 366 kts 271°
2026-05-05 10:06 43.55717 14.65488 23705 ft 363 kts 271°
2026-05-05 10:06 43.55838 14.62046 23201 ft 360 kts 271°
2026-05-05 10:07 43.55954 14.58587 22692 ft 357 kts 271°
2026-05-05 10:07 43.56060 14.55232 22197 ft 354 kts 271°
2026-05-05 10:07 43.56164 14.51831 21696 ft 351 kts 271°
2026-05-05 10:07 43.56264 14.48509 21210 ft 349 kts 271°
2026-05-05 10:08 43.56361 14.45208 20718 ft 346 kts 271°
2026-05-05 10:08 43.56457 14.41874 20221 ft 343 kts 271°
2026-05-05 10:08 43.56546 14.38636 19739 ft 340 kts 271°
2026-05-05 10:08 43.56630 14.35386 19249 ft 338 kts 271°
2026-05-05 10:09 43.56711 14.32150 18768 ft 335 kts 270°
2026-05-05 10:09 43.56789 14.28988 18292 ft 332 kts 270°
2026-05-05 10:09 43.56868 14.25821 17821 ft 329 kts 270°
2026-05-05 10:09 43.56942 14.22813 17372 ft 327 kts 270°
2026-05-05 10:10 43.57016 14.19702 16903 ft 325 kts 270°
2026-05-05 10:10 43.57090 14.16594 16429 ft 322 kts 270°
2026-05-05 10:10 43.57162 14.13544 15967 ft 320 kts 270°
2026-05-05 10:10 43.57235 14.10507 15498 ft 318 kts 271°
2026-05-05 10:11 43.57315 14.07450 15028 ft 316 kts 271°
2026-05-05 10:11 43.57398 14.04440 14574 ft 313 kts 271°
2026-05-05 10:11 43.57478 14.01486 14125 ft 311 kts 271°
2026-05-05 10:11 43.57555 13.98505 13677 ft 308 kts 271°
2026-05-05 10:12 43.57630 13.95567 13239 ft 306 kts 271°
2026-05-05 10:12 43.57702 13.92722 12792 ft 304 kts 271°
2026-05-05 10:12 43.57771 13.89934 12368 ft 302 kts 271°
2026-05-05 10:12 43.57835 13.87061 11928 ft 298 kts 269°
2026-05-05 10:13 43.57650 13.84275 11488 ft 289 kts 256°
2026-05-05 10:13 43.56813 13.81831 11175 ft 278 kts 234°
2026-05-05 10:13 43.55592 13.79865 10917 ft 266 kts 231°
2026-05-05 10:13 43.54388 13.77983 10557 ft 260 kts 231°
2026-05-05 10:14 43.53211 13.76090 10046 ft 259 kts 232°
2026-05-05 10:14 43.52053 13.74202 9560 ft 258 kts 232°
2026-05-05 10:14 43.50912 13.72334 9100 ft 255 kts 232°
2026-05-05 10:14 43.49769 13.70467 8607 ft 254 kts 231°
2026-05-05 10:15 43.48649 13.68647 8142 ft 251 kts 231°
2026-05-05 10:15 43.47508 13.66819 7727 ft 247 kts 231°
2026-05-05 10:15 43.46420 13.65080 7428 ft 239 kts 231°
2026-05-05 10:15 43.45328 13.63314 7135 ft 248 kts 231°
2026-05-05 10:16 43.44211 13.61495 6805 ft 247 kts 231°
2026-05-05 10:16 43.43115 13.59708 6608 ft 238 kts 233°
2026-05-05 10:16 43.42212 13.57882 6443 ft 229 kts 239°
2026-05-05 10:16 43.41423 13.55975 6127 ft 228 kts 241°
2026-05-05 10:17 43.40669 13.54089 5843 ft 226 kts 241°
2026-05-05 10:17 43.39892 13.52196 5531 ft 225 kts 240°
2026-05-05 10:17 43.39120 13.50341 5265 ft 230 kts 240°
2026-05-05 10:17 43.38321 13.48430 5042 ft 227 kts 240°
2026-05-05 10:18 43.37552 13.46594 4956 ft 216 kts 239°
2026-05-05 10:18 43.36816 13.44840 4888 ft 204 kts 240°
2026-05-05 10:18 43.36297 13.43102 4824 ft 193 kts 258°
2026-05-05 10:18 43.36399 13.41296 4718 ft 192 kts 286°
2026-05-05 10:19 43.37051 13.39686 4483 ft 199 kts 304°
2026-05-05 10:19 43.38005 13.38241 4046 ft 210 kts 314°
2026-05-05 10:19 43.39052 13.36898 3961 ft 197 kts 314°
2026-05-05 10:19 43.39988 13.35652 3973 ft 182 kts 311°
2026-05-05 10:20 43.40893 13.34372 3974 ft 187 kts 309°
2026-05-05 10:20 43.41802 13.33074 3975 ft 187 kts 310°
2026-05-05 10:20 43.42713 13.31791 3971 ft 187 kts 310°
2026-05-05 10:20 43.43623 13.30511 3976 ft 187 kts 310°
2026-05-05 10:21 43.44533 13.29225 3976 ft 187 kts 310°
2026-05-05 10:21 43.45436 13.27948 3981 ft 188 kts 310°
2026-05-05 10:21 43.46358 13.26644 3910 ft 190 kts 310°
2026-05-05 10:21 43.47262 13.25363 3518 ft 198 kts 310°
2026-05-05 10:22 43.48244 13.23971 3006 ft 209 kts 311°
2026-05-05 10:22 43.49358 13.22671 2663 ft 208 kts 328°
2026-05-05 10:22 43.50701 13.22274 2631 ft 194 kts
2026-05-05 10:22 43.51954 13.22967 2465 ft 194 kts 35°
2026-05-05 10:23 43.52960 13.24191 2176 ft 194 kts 47°
2026-05-05 10:23 43.53868 13.25487 1961 ft 183 kts 47°
2026-05-05 10:23 43.54740 13.26703 1715 ft 173 kts 46°
2026-05-05 10:23 43.55567 13.27814 1472 ft 161 kts 46°
2026-05-05 10:24 43.56363 13.28888 1270 ft 157 kts 46°
2026-05-05 10:24 43.57131 13.29942 1064 ft 155 kts 47°
2026-05-05 10:24 43.57894 13.30997 858 ft 154 kts 47°
2026-05-05 10:24 43.58631 13.32051 693 ft 153 kts 50°
2026-05-05 10:25 43.59366 13.33107 515 ft 151 kts 46°
2026-05-05 10:25 43.60132 13.34118 305 ft 151 kts 46°
2026-05-05 10:25 43.60860 13.35150 75 ft 149 kts 47°
2026-05-05 10:25 43.61520 13.36075 38 ft 107 kts 40°
2026-05-05 10:26 43.61879 13.36574 32 ft 41 kts 47°
2026-05-05 10:26 43.62012 13.36775 32 ft 13 kts 27°
2026-05-05 10:26 43.61980 13.36698 32 ft 15 kts 221°
2026-05-05 10:26 43.61866 13.36541 32 ft 31 kts 236°
2026-05-05 10:27 43.61690 13.36310 35 ft 36 kts 226°
2026-05-05 10:27 43.61502 13.36052 39 ft 39 kts 225°
2026-05-05 10:27 43.61302 13.35766 39 ft 42 kts 229°
2026-05-05 10:27 43.61103 13.35549 43 ft 29 kts 186°
2026-05-05 10:28 43.60956 13.35565 43 ft 16 kts 179°
2026-05-05 10:28 43.60876 13.35512 44 ft 11 kts 225°
2026-05-05 10:28 43.60814 13.35426 46 ft 11 kts 224°
2026-05-05 10:28 43.60766 13.35437 47 ft 5 kts 138°
2026-05-05 10:29 43.60760 13.35445 47 ft 0 kts 138°